Voltar ao catálogo

STARLINK-6163

AtivoComunicaçõesVLEO
NORAD 57128·PAYLOAD·🇺🇸 United States

Lançado Jun 23, 2023 de Cape Canaveral Space Force Station

Loading…

Próximas Passagens (próximas 24 horas)

TLE

AtualizadoSource: CelesTrak SupGP

Época: Sep 15, 2026, 01:29 UTC

1 57128C 23090AD  26258.06229167  .00022431  00000+0  81241-3 0  2581
2 57128  43.0018 291.7808 0001750 267.8239 243.3716 15.27568820    17

Acompanhe STARLINK-6163 em tempo real com AllMySat

Download on the App Store